Weather History for Beverly, MA

Change the Weather History Date:

Monday, September 2, 2013

  Actual Average Record
Temperature  
Mean Temperature 74 °F -  
Max Temperature 79 °F 74 °F 97 °F (1980)
Min Temperature 69 °F 54 °F 28 °F (1988)
Cooling Degree Days 9    
Growing Degree Days 24 (Base 50)    
Moisture  
Dew Point 70 °F    
Average Humidity 92    
Maximum Humidity 100    
Minimum Humidity 78    
Precipitation  
Precipitation 0.07 in - - ()
Sea Level Pressure  
Sea Level Pressure 29.79 in    
Wind  
Wind Speed 5 mph (SSE)    
Max Wind Speed 9 mph    
Max Gust Speed -    
Visibility 6 miles    
Events Fog , Rain , Thunderstorm    
Averages and records for this station are not official NWS values.
T = Trace of Precipitation, MM = Missing Value Source: NWS Daily Summary

Daily Weather History Graph

Daily Weather History Graph

Search for Another Location

Airport:

Trip Planner

Search our weather history database for the weather conditions in past years. The results will help you decide how hot, cold, wet, or windy it might be!

Date:

Astronomy

Sep. 02, 2013 Rise Set
Actual Time 6:09 AM EDT 7:15 PM EDT
Civil Twilight 5:40 AM EDT 7:44 PM EDT
Nautical Twilight 5:06 AM EDT 8:19 PM EDT
Astronomical Twilight 4:30 AM EDT 8:55 PM EDT
Moon 3:21 AM EDT (9/2) 5:29 PM EDT (9/2)
Length of Visible Light 14h 03m
Length of Day
13h 05m
Waning Crescent, 8% of the Moon is Illuminated
Sep 2
Waning Crescent
Sep 5
New
Sep 12
First Quarter
Sep 19
Full
Sep 26
Last Quarter

Hourly Weather History & Observations

Time (EDT) Temp. Dew Point Humidity Pressure Visibility Wind Dir Wind Speed Gust Speed Precip Events Conditions
12:53 AM 72.0 °F 70.0 °F 93% 29.85 in 8.0 mi South 4.6 mph - N/A   Overcast
1:09 AM 71.6 °F 69.8 °F 94% 29.86 in 9.0 mi South 5.8 mph - N/A   Mostly Cloudy
1:27 AM 71.6 °F 69.8 °F 94% 29.85 in 10.0 mi South 5.8 mph - N/A   Partly Cloudy
1:36 AM 71.6 °F 69.8 °F 94% 29.85 in 9.0 mi South 5.8 mph - N/A   Mostly Cloudy
1:53 AM 72.0 °F 71.1 °F 97% 29.83 in 9.0 mi South 5.8 mph - N/A   Overcast
2:36 AM 71.6 °F 69.8 °F 94% 29.84 in 8.0 mi SE 4.6 mph - N/A   Overcast
2:53 AM 71.1 °F 69.1 °F 93% 29.82 in 8.0 mi SSE 3.5 mph - N/A   Overcast
3:17 AM 71.6 °F 69.8 °F 94% 29.84 in 9.0 mi SSE 4.6 mph - N/A   Overcast
3:24 AM 71.6 °F 69.8 °F 94% 29.84 in 7.0 mi SE 4.6 mph - N/A   Overcast
3:53 AM 71.1 °F 70.0 °F 96% 29.82 in 5.0 mi SE 5.8 mph - N/A   Overcast
4:11 AM 71.6 °F 69.8 °F 94% 29.83 in 1.8 mi SE 6.9 mph - N/A   Overcast
4:53 AM 70.0 °F 69.1 °F 97% 29.81 in 1.0 mi SE 4.6 mph - N/A   Overcast
5:03 AM 69.8 °F 69.8 °F 100% 29.82 in 0.5 mi SE 6.9 mph - N/A Fog Fog
5:34 AM 69.8 °F 68.0 °F 94% 29.83 in 1.2 mi ESE 6.9 mph - 0.01 in Rain Light Rain
5:53 AM 69.1 °F 68.0 °F 96% 29.81 in 1.8 mi ESE 4.6 mph - 0.01 in Rain Light Rain
5:55 AM 69.8 °F 68.0 °F 94% 29.83 in 2.0 mi ESE 4.6 mph - 0.00 in Rain Light Rain
6:05 AM 69.8 °F 69.8 °F 100% 29.83 in 4.0 mi SE 4.6 mph - 0.00 in Rain Light Rain
6:24 AM 69.8 °F 69.8 °F 100% 29.83 in 2.5 mi SE 3.5 mph - 0.00 in   Overcast
6:44 AM 69.8 °F 69.8 °F 100% 29.83 in 1.5 mi SSE 4.6 mph - 0.00 in   Overcast
6:53 AM 71.1 °F 70.0 °F 96% 29.82 in 1.5 mi South 5.8 mph - 0.00 in   Overcast
6:55 AM 71.6 °F 69.8 °F 94% 29.83 in 1.5 mi SSE 4.6 mph - N/A   Overcast
7:53 AM 72.0 °F 70.0 °F 93% 29.81 in 10.0 mi South 6.9 mph - 0.05 in   Overcast
8:00 AM 71.6 °F 69.8 °F 94% 29.82 in 10.0 mi South 5.8 mph - N/A   Mostly Cloudy
8:21 AM 73.4 °F 69.8 °F 88% 29.82 in 10.0 mi SSE 8.1 mph - N/A   Overcast
8:53 AM 72.0 °F 69.1 °F 91% 29.81 in 10.0 mi South 4.6 mph - N/A   Mostly Cloudy
9:53 AM 73.0 °F 69.1 °F 87% 29.81 in 10.0 mi SE 5.8 mph - N/A   Mostly Cloudy
10:20 AM 73.4 °F 69.8 °F 88% 29.83 in 10.0 mi South 4.6 mph - N/A   Overcast
10:53 AM 73.9 °F 70.0 °F 87% 29.81 in 10.0 mi SE 4.6 mph - N/A   Overcast
11:53 AM 73.0 °F 70.0 °F 90% 29.80 in 10.0 mi SSE 4.6 mph - N/A   Overcast
12:46 PM 78.8 °F 71.6 °F 78% 29.80 in 10.0 mi Variable 3.5 mph - N/A   Mostly Cloudy
12:53 PM 77.0 °F 71.1 °F 82% 29.78 in 10.0 mi SE 6.9 mph - N/A Thunderstorm Overcast
1:53 PM 79.0 °F 73.0 °F 82% 29.76 in 8.0 mi SSE 9.2 mph - 0.01 in Rain , Thunderstorm Light Rain
2:00 PM 75.2 °F 71.6 °F 89% 29.78 in 3.0 mi SSE 5.8 mph - 0.07 in Thunderstorm Haze
2:07 PM 75.2 °F 71.6 °F 89% 29.77 in 5.0 mi SE 5.8 mph - 0.11 in Rain Rain
2:41 PM 73.4 °F 71.6 °F 94% 29.76 in 3.0 mi SSE 5.8 mph - N/A Rain , Thunderstorm Thunderstorms and Rain
2:53 PM 75.0 °F 72.0 °F 90% 29.74 in 3.0 mi SSE 8.1 mph - N/A Rain , Thunderstorm Thunderstorms and Rain
3:00 PM 75.2 °F 71.6 °F 89% 29.75 in 9.0 mi SSE 8.1 mph - 0.00 in Rain , Thunderstorm Thunderstorms and Rain
3:08 PM 75.2 °F 73.4 °F 94% 29.75 in 5.0 mi SE 5.8 mph - 0.00 in   Scattered Clouds
3:53 PM 75.9 °F 72.0 °F 87% 29.73 in 5.0 mi SE 8.1 mph - 0.00 in   Mostly Cloudy
4:53 PM 77.0 °F 72.0 °F 84% 29.72 in 5.0 mi SE 6.9 mph - N/A   Haze
5:00 PM 77.0 °F 73.4 °F 89% 29.73 in 10.0 mi SE 8.1 mph - N/A   Clear
5:53 PM 73.9 °F 71.1 °F 91% 29.71 in 8.0 mi SE 6.9 mph - N/A   Scattered Clouds
6:53 PM 73.9 °F 69.1 °F 85% 29.70 in 10.0 mi SSE 4.6 mph - N/A   Clear
7:53 PM 73.0 °F 69.1 °F 87% 29.71 in 10.0 mi South 4.6 mph - N/A   Clear
8:53 PM 70.0 °F 68.0 °F 93% 29.72 in 9.0 mi SSE 4.6 mph - N/A   Clear
9:23 PM 69.8 °F 68.0 °F 94% 29.74 in 8.0 mi SSE 3.5 mph - N/A   Scattered Clouds
9:28 PM 71.6 °F 69.8 °F 94% 29.74 in 8.0 mi Calm Calm - N/A   Mostly Cloudy
9:53 PM 70.0 °F 69.1 °F 97% 29.72 in 7.0 mi Calm Calm - N/A   Mostly Cloudy
10:41 PM 71.6 °F 69.8 °F 94% 29.73 in 6.0 mi SSE 3.5 mph - N/A   Mostly Cloudy
10:53 PM 71.1 °F 70.0 °F 96% 29.71 in 6.0 mi SSE 3.5 mph - N/A   Mostly Cloudy
11:41 PM 71.6 °F 69.8 °F 94% 29.73 in 6.0 mi Calm Calm - N/A   Mostly Cloudy
11:50 PM 71.6 °F 69.8 °F 94% 29.73 in 5.0 mi Calm Calm - N/A   Mostly Cloudy
11:53 PM 71.1 °F 70.0 °F 96% 29.72 in 5.0 mi Calm Calm - N/A   Overcast